Search flights

Bremen Airport, Bremen (EDDW)

Airport Weather & NOTAM's

METAR for:EDDW (Bremen Arpt, HB, DE)
Text:EDDW 160950Z AUTO 24013KT 190V260 9999 SCT035 SCT043 23/15 Q1009 TEMPO 23015G25KT
Conditions at:0950 UTC 16 Jul 2024
Temperature: 23.0°C ( 73°F)
Dewpoint: 15.0°C ( 59°F) [RH = 61%]
Pressure (altimeter):29.79 inches Hg (1009.0 mb)
Winds:from the WSW (240 degrees) at 15 MPH (13 knots; 6.7 m/s)
Visibility:6 or more sm (10+ km)
Ceiling:at least 12,000 feet AGL
Clouds:scattered clouds at 3500 feet AGL, scattered clouds at 4300 feet AGL
TAF for:EDDW (Bremen Arpt, HB, DE) issued at 0500 UTC 16 Jul 2024
Text:TAF EDDW 160500Z 1606/1706 16005KT 9999 SCT030
Forecast period:0600 UTC 16 July 2024 to 0600 UTC 17 July 2024
Forecast type:FROM: standard forecast or significant change
Winds:from the SSE (160 degrees) at 6 MPH (5 knots; 2.6 m/s)
Visibility:6 or more sm (10+ km)
Ceiling:at least 12,000 feet AGL
Clouds:scattered clouds at 3000 feet AGL
Text:BECMG 1606/1608 22012KT
Forecast period:0600 to 1800 UTC 16 July 2024
Forecast type:BECOMING: Conditions expected to become as follows by 0800 UTC 16 July 2024
Winds:from the SW (220 degrees) at 14 MPH (12 knots; 6.2 m/s)
Visibility:6 or more sm (10+ km)
Ceiling:at least 12,000 feet AGL
Clouds:scattered clouds at 3000 feet AGL
Text:TEMPO 1609/1619 22015G25KT
Forecast period:0900 to 1900 UTC 16 July 2024
Forecast type:TEMPORARY: The following changes expected for less than half the time period
Winds:from the SW (220 degrees) at 17 MPH (15 knots; 7.7 m/s) gusting to 29 MPH (25 knots; 12.9 m/s)
Text:PROB40
Forecast period:1200 to 1900 UTC 16 July 2024
Forecast type:TEMPORARY: The following changes expected for less than half the time period
Visibility:2.80 sm (4.51 km)
Ceiling:2500 feet AGL
Clouds:scattered clouds at 1400 feet AGL, broken clouds at 2500 feet AGL
Weather:SHRA (rain showers)
Text:TEMPO 1612/1619 4500 SHRA SCT014 BKN025CB
Forecast period:1400 to 1900 UTC 16 July 2024
Forecast type:TEMPORARY: The following changes expected for less than half the time period
Winds:from the SW (220 degrees) at 23 MPH (20 knots; 10.3 m/s) gusting to 40 MPH (35 knots; 18.0 m/s)
Visibility:1.55 sm (2.49 km)
Ceiling:1400 feet AGL
Clouds:broken clouds at 1400 feet AGL
Weather:TSRA (rain associated with thunderstorm(s))
Text:PROB30
Forecast period:1800 UTC 16 July 2024 to 0600 UTC 17 July 2024
Forecast type:BECOMING: Conditions expected to become as follows by 2100 UTC 16 July 2024
Winds:from the SW (220 degrees) at 8 MPH (7 knots; 3.6 m/s)
Visibility:6 or more sm (10+ km)
Ceiling:at least 12,000 feet AGL
Clouds:scattered clouds at 3000 feet AGL
Text:TEMPO 1614/1619 22020G35KT 2500 TSRA BKN014CB
Forecast period:2100 UTC 16 July 2024 to 0100 UTC 17 July 2024
Forecast type:TEMPORARY: The following changes expected for less than half the time period
Winds:from the SW (220 degrees) at 14 MPH (12 knots; 6.2 m/s)
Visibility:2.80 sm (4.51 km)
Ceiling:1400 feet AGL
Clouds:broken clouds at 1400 feet AGL
Weather:SHRA (rain showers)
Text:BECMG 1618/1621 22007KT
Forecast period:0100 to 0600 UTC 17 July 2024
Forecast type:TEMPORARY: The following changes expected for less than half the time period
Ceiling:1000 feet AGL
Clouds:broken clouds at 1000 feet AGL

Live Departures & Arrivals

There are currently no arrivals or departures for this airport.

Departures History (last 12 months)

Flight No. Dest. Aircraft Date
ESY4711 EDDH Airbus A31... 2024-06-26 21:31:06
DLH4711 EDDH Airbus A31... 2024-06-13 20:56:29
DLH4711 EPGD Airbus A32... 2024-05-29 17:57:55
DLH 54567 EDDH Airbus A32... 2024-05-22 15:51:29
ESE4545 EDDH Airbus A31... 2024-05-18 22:01:01
FAV23 EDDM FWB nx Fly... 2024-05-11 19:54:52
EUR4545 EDDH Airbus A31... 2024-05-09 16:17:56
DLH 4444 EDDH Airbus A32... 2024-05-06 19:48:36
DLH4711 EDDH Fenix A320... 2024-05-04 17:20:51
ESY3434 EDDH Airbus A31... 2024-04-28 18:22:49
DLH5656 EDDH Fenix A320... 2024-04-19 21:17:05
EYS3245 EDDH Airbus A32... 2024-04-16 20:38:45
RAY3234 EDDH PMDG 737-8... 2024-04-14 18:16:04
SYE 4343 EDDH Fenix A320... 2024-04-05 09:21:05
ESY 4324 EDDK Fenix A320... 2024-04-02 09:00:36
DLH43432 EDDH Fenix A320... 2024-03-29 22:18:40
DLH 4711 EDDH Fenix A320... 2024-03-25 21:08:48
ESY34567 EPGD Fenix A320... 2024-03-19 22:06:22
LH4711 EDDH Fenix A320... 2024-03-15 22:12:36
EYS 3214 LFMT Airbus A31... 2024-03-09 21:34:41
EYS 4567 EDDH Airbus A31... 2024-03-04 21:45:48
LH 4356 EDDK Airbus A31... 2024-02-22 21:39:16
EYW 5454 EDDH Airbus A32... 2024-02-16 21:06:16
EYS 2341 EDDH Airbus A32... 2024-02-14 17:50:50
EYS 352145 EDDH Airbus A32... 2024-01-30 22:20:21
FEY 5456 EDDL Airbus A32... 2024-01-28 10:56:17
LH 45432 EDDH Airbus A31... 2024-01-25 21:49:31
LH 65767 EDDH Airbus A31... 2024-01-21 18:19:59
EW 5454 EDDH Airbus A32... 2024-01-03 21:59:09
LH5655 EDDH Airbus A31... 2024-01-01 12:51:25
FAV587 EDDF FWB nx Fly... 2023-12-27 23:39:18
FAV587 EDDF B738 2023-12-18 20:21:00
EYF5656 EDDH Airbus A31... 2023-10-23 20:46:02
LH4711 EDDH Airbus A31... 2023-10-19 20:31:14
LH5456 EDDH Airbus A31... 2023-10-17 21:40:24
LH6767 EDDH Airbus A31... 2023-10-15 20:29:20
LH4343 EDDH Airbus A31... 2023-10-15 16:20:42
EURO3434 EDDH Airbus A32... 2023-10-14 09:32:59
FAV585 EDDM FWB nx Fly... 2023-10-03 16:22:39
EW56456 EDDH Airbus A32... 2023-10-03 15:51:04
LH4765 EDDK Airbus A31... 2023-09-30 17:08:23
HY3232 EDDH Airbus A32... 2023-09-29 19:12:26
ESY3434 EDDH Airbus A31... 2023-09-26 19:40:33
LH 4356 EDDH Airbus A32... 2023-09-21 21:38:45
LH 4711 EDDH Airbus A31... 2023-09-06 19:01:04
LH4711 EDDK Airbus A31... 2023-08-29 17:36:17

Arrivals History (last 12 months)

Flight No. Origin Aircraft Date
ESY4711 EDDH Airbus A31... 2024-06-18 21:17:39
ESY4711 EDDH Airbus A32... 2024-06-03 17:37:10
DLH3456 EDDH Airbus A32... 2024-05-29 10:22:20
DLH4711 EDDH Airbus A31... 2024-05-28 10:34:45
DLH4711 EDDH Fenix A320... 2024-05-20 20:44:22
DLH4711 EDDH FenixA320... 2024-05-13 21:27:44
DLH T654 EDDH Airbus A32... 2024-05-08 22:13:04
DLH 7777 EDDH Airbus A32... 2024-05-05 09:30:41
DFDE34345 EDDH Fenix A320... 2024-04-26 22:24:00
SEY43456 EDDH Fenix A320... 2024-04-20 16:52:38
SES3434 EDDH Airbus A31... 2024-04-20 22:03:37
DLH 4545 EDDH Airbus A31... 2024-04-18 20:47:12
DLH4444 EDDH Fenix A320... 2024-04-15 21:31:14
LH5456 EDDH Fenix A320... 2024-04-13 21:40:12
EAY1245 EDDH Airbus A31... 2024-04-04 16:53:11
ESY 54345 EDDH Fenix A320... 2024-04-01 19:22:42
DLH4711 EDDH Fenix A320... 2024-03-29 15:58:20
LH 4711 EDDH Fenix A320... 2024-03-23 12:17:26
EYS54567 EDDH Fenix A320... 2024-03-18 22:08:07
SY4545 EDDH Fenix A320... 2024-03-17 17:55:54
LH5656 EDDH FenixA320... 2024-03-14 22:48:24
EYS 4354 EDDH Airbus A31... 2024-03-06 21:50:58
LH3434 EDDH Airbus A32... 2024-02-27 22:25:05
LH 4711 EDDH Airbus A31... 2024-02-21 22:26:08
EYW 3245 EDDH Airbus A32... 2024-02-15 06:17:38
ESY 4545 EDDH Airbus A32... 2024-02-14 11:36:16
ESY 4578 EDDH Airbus A32... 2024-01-29 21:58:33
EYW4545 EDDH Airbus A32... 2024-01-27 21:55:24
LH56456 EDDH Airbus A31... 2024-01-24 22:02:02
LH 45456 EDDH Airbus A31... 2024-01-21 13:44:23
LH3434 EDDH Airbus A32... 2024-01-02 22:23:26
FAV590 EGLL FWB nx Fly... 2023-12-29 23:36:00
FAV395 EDDM FWB nx Fly... 2023-12-23 19:48:20
FAV586 EDDF B738 2023-12-18 19:08:00
ESY5432 EDDH Airbus A31... 2023-10-24 20:29:07
LH4711 EDDH Airbus A31... 2023-10-22 11:10:29
LH4321 EDDH Airbus A31... 2023-10-18 22:12:03
LH5454 EDDH Airbus A31... 2023-10-16 22:24:31
LH7678 EDDH Airbus A31... 2023-10-15 19:45:07
LH 567 EDDH Airbus A32... 2023-10-14 17:13:48
LH3434 EDDH Airbus A31... 2023-10-13 20:19:22
EW14547 EDDH Airbus A32... 2023-10-03 11:38:27
LH 4723 EDDH Airbus A31... 2023-09-30 12:21:32
EYS1245 EDDH Airbus A31... 2023-09-27 20:32:05
IS4545 EDDH Airbus A31... 2023-09-25 20:24:02
LH 3232 EDDH Airbus A32... 2023-09-21 19:00:16
LH4711 EDDH Airbus A31... 2023-09-06 12:41:31
4711 EDDH Airbus A31... 2023-08-29 11:33:38
FAV395 EDDM FWB nx Fly... 2023-08-16 22:55:02

Runway Information (Airport elevation: 13ft)

Runway 05 Length 2,296ft Width 74ft Elevation 13ft Surface Asphalt Heading 51
Runway 09 Length 8,639ft Width 146ft Elevation 13ft Surface Asphalt Heading 88
Runway 23 Length 2,296ft Width 74ft Elevation 13ft Surface Asphalt Heading 231
Runway 27 Length 8,639ft Width 146ft Elevation 13ft Surface Asphalt Heading 268

Airport Frequencies

Type APP/DEP Frequency 124.800 Mhz
Type ATIS Frequency 132.380 Mhz
Type Ground Frequency 121.755 Mhz
Type Tower Frequency 120.330 Mhz
Type Tower Frequency 134.830 Mhz
Type APP/DEP Frequency 124.800 Mhz

Airport Navaids

Type VOR-DME Ident BMN Frequency 117450 Khz